This demonstration page uses our WeatherBlox Daily Observations layout. Learn more.

38.89511, -77.03637

Hourly Observations for September 27, 2015

Temp ( °F °C ) Dew Point ( °F °C ) Humidity (%) Winds ( mph kmh ) Pressure ( in mb ) Visibility ( mi km ) Precip ( " mm )
12:52 am 00:52 Partly Cloudy 64 18 54 12 68 68 NE 13 20 30.39 1029 10 16.09344 0 0
1:52 am 01:52 Mostly Cloudy 63 17 55 13 77 77 NNE 14 22 30.36 1028 10 16.09344 0 0
2:52 am 02:52 Mostly Cloudy 63 17 55 13 77 77 NE 10 17 30.36 1028 10 16.09344 0 0
3:52 am 03:52 Cloudy 63 17 55 13 77 77 NE 10 17 30.36 1028 10 16.09344 0 0
4:52 am 04:52 Cloudy 63 17 55 13 77 77 NE 14 22 30.36 1028 10 16.09344 0 0
5:52 am 05:52 Cloudy 63 17 55 13 77 77 NNE 9 15 30.36 1028 10 16.09344 0 0
6:52 am 06:52 Cloudy 63 17 55 13 77 77 NNE 10 17 30.36 1028 10 16.09344 0.001 0.001
7:52 am 07:52 Cloudy with Light Rain 63 17 55 13 77 77 NNE 12 19 30.36 1028 10 16.09344 0.001 0.001
8:52 am 08:52 Mostly Cloudy 63 17 55 13 77 77 NE 8 13 30.36 1028 10 16.09344 0.001 0.001
9:52 am 09:52 Mostly Cloudy 66 19 57 14 73 73 NE 12 19 30.39 1029 10 16.09344 0 0
10:52 am 10:52 Mostly Cloudy 70 21 57 14 64 64 ENE 13 20 30.36 1028 10 16.09344 0 0
11:52 am 11:52 Mostly Cloudy 72 22 59 15 65 65 NE 10 17 30.36 1028 10 16.09344 0 0
12:52 pm 12:52 Cloudy 72 22 61 16 69 69 ENE 10 17 30.33 1027 10 16.09344 0 0
1:52 pm 13:52 Mostly Cloudy 72 22 61 16 69 69 NE 10 17 30.33 1027 10 16.09344 0 0
2:52 pm 14:52 Mostly Cloudy 73 23 61 16 65 65 ENE 10 17 30.3 1026 10 16.09344 0 0
3:52 pm 15:52 Cloudy 73 23 63 17 69 69 NE 14 22 30.27 1025 10 16.09344 0 0
4:27 pm 16:27 Cloudy 73 23 63 17 69 69 ENE 8 13 30.27 1025 10 16.09344 0 0
4:52 pm 16:52 Cloudy 73 23 63 17 69 69 ENE 12 19 30.27 1025 10 16.09344 0 0
5:52 pm 17:52 Cloudy 73 23 63 17 69 69 E 12 19 30.27 1025 10 16.09344 0 0
6:52 pm 18:52 Cloudy 72 22 63 17 73 73 ENE 10 17 30.27 1025 10 16.09344 0 0
7:52 pm 19:52 Cloudy 72 22 63 17 73 73 ENE 7 11 30.27 1025 10 16.09344 0 0
8:52 pm 20:52 Mostly Cloudy 72 22 63 17 73 73 ENE 8 13 30.27 1025 10 16.09344 0 0
9:03 pm 21:03 Mostly Cloudy 72 22 63 17 73 73 ENE 10 17 30.27 1025 10 16.09344 0 0
9:52 pm 21:52 Cloudy 70 21 63 17 78 78 E 12 19 30.27 1025 10 16.09344 0 0
10:52 pm 22:52 Mostly Cloudy 70 21 63 17 78 78 ENE 10 17 30.27 1025 10 16.09344 0 0
11:52 pm 23:52 Cloudy 70 21 63 17 78 78 NE 9 15 30.27 1025 10 16.09344 0 0

Powered by AerisWeather